Regional Weather Roundup
Issued by NWS

Home | Current Version | Previous Version | Text Only | Print | Product List | Glossary Off
Versions: 1 2 3 4 5 6 7 8 9 10 11 12 13 14 15 16 17 18 19 20 21 22 23 24 25 26 27 28 29 30 31 32 33 34 35 36 37 38 39 40 41 42 43 44 45 46 47 48 49 50

000
ASUS43 KMKX 261124
RWRWI

WISCONSIN REGIONAL WEATHER ROUNDUP
NATIONAL WEATHER SERVICE MILWAUKEE/SULLIVAN WI
600 AM CDT TUE MAY 26 2015

NOTE: "FAIR" INDICATES FEW OR NO CLOUDS BELOW 12,000 FEET WITH NO
SIGNIFICANT WEATHER AND/OR OBSTRUCTIONS TO VISIBILITY.

WIZ001-002-006>008-014>016-023>028-261200-
NORTHWEST WISCONSIN

CITY           SKY/WX    TMP DP  RH WIND       PRES   REMARKS
SUPERIOR ARPT  FOG       48  48 100 CALM      29.84S VSB 1/4
ASHLAND        FOG       50  50 100 E3        29.84R VSB 1/4
HAYWARD        FOG       56  54  93 N3        29.81R VSB<1/4
SIREN          FOG       51  51  98 N3        29.81S VSB 1/4
CUMBERLAND     MOCLDY    54  52  94 CALM      29.80R FOG
RICE LAKE      FOG       56  55  96 CALM      29.81R VSB<1/4
CHETEK         FOG       58  58 100 CALM      29.79R VSB 1/4
LADYSMITH      FOG       60  59  97 CALM      29.82R VSB 1/2
EAU CLAIRE     MOCLDY    59  58  96 S3        29.80R
MENOMONIE      MOCLDY    57  57  99 SE3       29.80R FOG
NEW RICHMOND   FOG       55  55 100 CALM      29.80R VSB 1
OSCEOLA        CLOUDY    55  55 100 CALM      29.81S FOG
$$

WIZ003>005-009-010-017-018-261200-
NORTH CENTRAL WISCONSIN

CITY           SKY/WX    TMP DP  RH WIND       PRES   REMARKS
MANITOWISH WTR MOCLDY    59  59 100 CALM      29.81S FOG
ARBOR VITAE    MOCLDY    58  57  96 CALM      29.83R FOG
WOODRUFF       MOCLDY    58  57  96 CALM      29.83R FOG
RHINELANDER    CLOUDY    61  59  93 S5        29.84R
EAGLE RIVER    CLOUDY    58  58 100 S3        29.83R FOG
LAND O LAKES   CLOUDY    58  58 100 CALM      29.82S FOG
PHILLIPS       FOG       58  58 100 CALM      29.81R VSB 3/4
TOMAHAWK       FOG       57  56  97 CALM      29.83R VSB 1
MEDFORD        MOCLDY    58  58  99 S7        29.84R FOG
MERRILL        FOG       52  52 100 CALM      29.85R VSB 3/4
$$

WIZ029-030-035-036-043>047-261200-
CENTRAL WISCONSIN

CITY           SKY/WX    TMP DP  RH WIND       PRES   REMARKS
WAUSAU         MOCLDY    61  60  97 E3        29.83R
MOSINEE        CLEAR     59  59 100 S5        29.85R
MARSHFIELD     FOG       59  57  93 S5        29.84R VSB 1/4
STEVENS POINT  CLOUDY    57  57 100 CALM      29.85R FOG
WAUPACA        PTCLDY    63  62  97 CALM      29.84S
WAUTOMA        PTCLDY    61  61 100 SE3       29.86R
WISC RAPIDS    PTCLDY    59  57  93 E3        29.85R FOG
CAMP DOUGLAS   PTCLDY    64  64 100 S10       29.81R
$$

WIZ011>013-019>022-031-037>040-048>050-261200-
NORTHEAST WISCONSIN

CITY           SKY/WX    TMP DP  RH WIND       PRES   REMARKS
ANTIGO         PTCLDY    57  57 100 S7        29.86R
SHAWANO        CLEAR     63  61  94 CALM      29.86R
OCONTO         CLEAR     63  63 100 S5        29.85R
STURGEON BAY   FAIR      63  57  82 S8        29.89R
GREEN BAY      CLEAR     66  61  84 S8        29.86S
MANITOWOC      PTCLDY    58  56  93 S3        29.89R
APPLETON       PTCLDY    64  61  88 S9        29.87R
CLINTONVILLE   CLEAR     61  59  94 S6        29.85R
OSHKOSH        CLEAR     65  61  87 S9        29.86R
$$

WIZ032>034-041-042-053>061-261200-
SOUTHWEST WISCONSIN

CITY           SKY/WX    TMP DP  RH WIND       PRES   REMARKS
LA CROSSE      PTCLDY    61  59  93 SE5       29.81R
SPARTA         PTCLDY    60  58  94 CALM      29.84R
VIROQUA        PTCLDY    61  60  97 SE10      29.83S
BOSCOBEL       PTCLDY    60  58  92 CALM      29.83S
PRAIRIE DU CHI MOCLDY    61  57  86 E3        29.81F
PLATTEVILLE    CLOUDY    66  63  89 SE8       29.84F
$$

WIZ056-057-062-063-064-067-068-261200-
SOUTH CENTRAL WISCONSIN

CITY           SKY/WX    TMP DP  RH WIND       PRES   REMARKS
REEDSBURG      MOCLDY    64  61  91 S6        29.84S
BARABOO/DELLS  MOCLDY    64  60  88 S8        29.85S
LONE ROCK      PTCLDY    62  60  93 E7        29.84F
MINERAL POINT  CLOUDY    64  61  88 E5        29.86F
MADISON        CLOUDY    67  63  87 S8        29.87S
MIDDLETON      MOCLDY    68  66  93 SW6       29.87F
WATERTOWN      PTCLDY    65  65 100 S3        29.89R
MONROE         CLOUDY    66  64  94 S9        29.86F
JANESVILLE     PTCLDY    68  64  88 S7        29.88F
$$

WIZ051-052-058>065-066-070>072-261200-
SOUTHEAST WISCONSIN

CITY           SKY/WX    TMP DP  RH WIND       PRES   REMARKS
MILWAUKEE      PTCLDY    66  62  87 S10       29.91R
WAUKESHA       PTCLDY    64  63  94 S9        29.92R
MILWAUKEE/TIMM CLEAR     66  61  82 S8        29.91S
RACINE         PTCLDY    67  63  87 SW8       29.94R
BURLINGTON     CLEAR     64  62  95 S6        29.92R
KENOSHA        MOCLDY    68  65  90 S10       29.93R
FOND DU LAC    CLEAR     68  63  84 SW10G21   29.87R
SHEBOYGAN      CLEAR     62  60  93 S8        29.89R
WEST BEND      CLEAR     64  61  88 S5        29.90R
JUNEAU         PTCLDY    65  63  93 S9        29.90S
$$

LSZ147-162-261200-
LAKE SUPERIOR

STATION/POSITION TIME  TEMP    WIND        PRES    WAVE
                       AIR SEA DIR/SP/G            HT/PER
                 (UTC) (F)     (DEG/KT/KT) (MB)    (FT/S)
W MID LAKE BUOY  1050   41 36  240/  4/  4   N/A     1/ 4
DEVILS ISLAND    1100   45     240/  5/  6   N/A
PORT WING        1040   44     310/  2/  2   N/A
SAXON HARBOR     1000   48        CALM       N/A
$$

LMZ867-665-643>646-261200-
LAKE MICHIGAN

STATION/POSITION TIME  TEMP    WIND        PRES    WAVE
                       AIR SEA DIR/SP/G            HT/PER
                 (UTC) (F)     (DEG/KT/KT) (MB)    (FT/S)
CHAMBERS ISLAND  1000   62     190/  5/ 14   N/A
N MID LAKE BUOY  1050   42 36  190/ 16/ 17   N/A     2/ 5
NORTHPORT PIER   1000   54     170/  2/  6   N/A
SISTER BAY       1048   60     180/  9/ 11   N/A
KEWAUNEE LAKESHO 1000   54     190/ 11/ 12   N/A
SHEBOYGAN LAKESH 1100   54     180/ 17/ 18   N/A
PORT WASHINGTON  1000   56      CALM  /  3   N/A
ATWATER BUOY     1000   52 46  190/  8/ 10   N/A
MILWAUKEE LAKESH 1000          140/  7/  8   N/A
S MID LAKE BUOY  1050   46 38  180/ 12/ 14   N/A     1
KENOSHA   LAKESH 1100   56     180/ 11/ 17   N/A
$$

TC  - TEMPERATURE IN CELSIUS
VSB - VISIBILITY IN STATUTE MILES
WCI - WIND CHILL INDEX
HX  - HEAT INDEX



USA.gov is the U.S. government's official web portal to all federal, state and local government web resources and services.